Temperature
21 19 18 19 19 20 20 20 20 20 21 21 19 19 19 20 20 19 19 19 19 19 19 19 19 19 19 18 18 18 18 17 17 17 17 16 16 16 16 16 16 16 16 16
19 19 20 21 21 21 21 20 20 20 21 21 19 19 19 19 19 20 19 19 19 19 19 19 19 19 19 18 18 18 18 17 17 17 17 16 16 16 16 16 16 16 16 16
19 20 22 22 21 21 21 20 20 20 20 20 20 19 18 19 20 20 20 20 20 20 19 19 19 19 19 18 18 18 18 17 17 17 17 16 16 16 16 16 16 16 16 16
20 21 22 21 21 21 20 21 22 21 19 18 19 17 18 18 18 18 19 20 20 20 19 19 19 19 19 19 18 18 18 17 17 17 17 16 16 16 16 16 16 16 16 16
20 21 21 21 22 22 21 22 21 20 19 18 18 17 17 18 18 18 19 20 20 20 20 19 19 19 19 18 18 18 18 17 17 17 17 16 16 16 16 16 16 16 16 16
20 21 22 22 22 22 21 20 19 17 17 17 18 18 17 17 18 19 19 20 20 20 20 20 19 19 19 18 18 18 18 17 17 17 16 16 16 16 16 16 16 16 16 15
19 20 21 22 21 20 19 17 17 17 16 17 18 18 18 19 19 20 20 20 20 20 20 19 19 19 19 18 18 18 18 17 17 17 17 16 16 16 16 16 16 16 15 15
18 18 20 21 20 19 19 17 17 17 17 17 18 18 18 20 20 21 21 21 20 20 20 20 19 19 19 19 18 18 18 17 17 17 17 16 16 16 16 16 16 16 15 15
17 18 20 21 21 20 19 18 17 17 17 17 17 18 19 19 19 19 20 20 20 20 20 20 19 19 19 19 18 18 18 17 17 17 17 16 16 16 16 16 16 15 15 15
18 18 19 21 21 20 20 18 16 16 17 16 17 17 17 18 18 18 18 19 19 20 20 20 19 19 19 19 19 18 18 17 17 17 17 16 16 16 16 16 16 15 15 15
18 17 18 19 19 19 19 19 17 15 16 16 16 16 18 18 18 18 18 19 19 20 19 19 19 19 19 19 18 18 18 18 17 17 17 16 16 16 16 16 16 15 15 15
17 15 16 17 19 19 19 19 17 16 16 15 15 16 19 18 18 18 19 19 19 19 19 19 19 19 18 18 18 18 18 17 17 17 17 16 16 16 16 16 15 15 15 15
17 15 15 16 17 18 19 19 18 16 15 15 15 16 18 18 18 19 19 19 19 19 19 19 19 19 18 18 18 18 18 17 17 17 17 16 16 16 16 16 15 15 15 15
17 15 15 16 16 17 17 18 18 16 15 15 16 17 17 17 17 18 19 19 19 19 19 19 18 18 18 18 18 18 18 17 17 17 17 17 16 16 16 16 15 15 15 15
16 15 16 16 17 18 18 18 18 17 16 16 16 16 17 17 17 18 18 18 18 18 18 18 18 18 18 18 18 18 18 17 17 17 17 17 16 16 16 16 15 15 15 15
15 15 16 16 17 17 17 18 17 17 17 17 17 16 16 17 18 17 18 18 18 18 18 18 18 18 18 18 18 18 18 17 17 17 17 17 16 16 16 16 15 15 15 15
14 15 15 14 16 16 16 17 17 17 17 17 16 16 16 16 16 17 18 18 18 18 18 18 18 18 18 17 17 17 17 17 17 17 17 16 16 16 16 15 15 15 15 15
14 14 13 13 15 15 16 17 17 17 17 16 16 16 16 17 17 18 18 18 18 18 18 18 17 17 17 17 17 17 17 17 17 17 17 16 16 16 16 15 15 15 15 14
14 14 13 13 14 14 16 17 17 16 16 16 16 16 17 17 17 17 18 18 18 18 18 18 17 17 17 17 17 17 17 17 17 17 16 16 16 16 16 15 15 15 15 14
14 13 13 12 14 14 15 17 18 17 15 16 16 16 16 16 14 15 18 18 18 18 18 18 17 17 17 17 17 17 17 17 17 16 16 16 16 16 16 15 15 15 15 14
14 13 12 12 13 13 15 16 17 16 15 17 17 17 16 16 16 17 18 18 18 18 18 17 17 17 17 17 17 16 16 16 16 16 16 16 16 16 16 15 15 15 15 14
13 13 12 12 12 13 15 16 15 15 17 17 17 17 17 17 17 17 17 18 18 17 17 17 17 17 16 16 16 16 16 16 16 16 16 16 16 15 15 15 15 15 14 14
12 13 12 12 13 15 16 16 17 17 16 17 17 17 17 17 17 17 17 17 17 17 17 17 17 16 16 16 16 16 16 16 16 15 15 16 15 15 15 15 15 14 14 14
12 12 12 12 12 14 15 16 16 16 16 17 17 17 17 17 17 17 17 17 17 17 16 16 16 16 16 16 16 16 16 16 15 15 15 15 15 15 15 15 14 14 14 14
12 12 11 12 12 14 15 15 16 16 16 16 17 17 17 17 16 16 16 16 16 16 16 16 16 16 16 15 15 15 15 15 15 15 15 15 15 15 15 14 14 14 14 14
11 11 11 12 13 13 14 15 15 15 16 16 16 16 16 16 16 16 16 16 16 16 16 16 16 15 15 15 15 15 15 15 15 15 15 15 14 14 14 14 14 14 13 13
Wind_Speed
0 3 4 8 8 6 5 3 3 6 5 3 5 6 8 10 9 10 10 10 10 10 8 8 9 8 8 7 7 7 6 5 5 3 3 3 2 1 2 3 6 7 7 7
3 3 8 7 5 4 4 3 3 4 3 2 4 6 7 8 11 12 13 12 12 9 7 8 8 8 8 8 8 7 7 6 5 4 3 3 3 2 1 2 4 6 6 6
6 6 4 4 3 3 4 5 5 4 2 2 0 4 5 5 6 7 9 11 11 13 12 10 9 8 8 9 9 9 8 7 6 6 4 4 4 3 2 2 2 3 5 6
3 4 3 3 3 4 4 4 3 3 1 3 2 3 7 6 6 9 10 10 11 11 12 11 10 9 10 9 9 9 8 8 6 7 6 6 4 3 2 1 0 1 3 5
3 2 2 3 4 4 4 3 1 2 2 2 2 2 7 3 6 11 11 12 12 12 14 13 12 11 10 9 9 9 8 7 7 7 8 7 4 3 2 2 2 1 2 3
4 3 3 3 2 2 1 4 5 4 3 2 5 4 6 5 9 9 11 11 12 13 13 13 12 10 8 8 8 8 9 7 7 7 7 8 7 5 4 3 2 1 1 1
4 4 2 1 2 4 5 5 3 4 2 5 3 3 6 7 7 9 11 12 12 12 12 12 11 10 9 9 9 9 10 8 7 8 7 7 7 7 6 5 4 3 1 1
1 4 3 1 4 3 2 7 5 3 3 4 2 4 5 5 3 4 6 8 9 10 11 13 13 13 11 11 10 10 10 9 9 8 7 7 7 5 4 4 4 4 3 3
3 5 5 2 2 6 3 3 6 5 1 2 4 3 5 6 4 1 3 5 8 10 11 12 12 12 11 11 11 12 11 9 9 9 7 6 6 6 5 5 4 3 3 3
5 3 5 3 2 1 4 4 4 3 2 2 4 3 3 4 3 1 2 5 7 8 9 9 10 12 11 11 10 10 10 10 8 8 7 7 6 6 5 5 4 4 3 3
3 3 3 1 2 3 1 1 3 3 4 4 2 5 4 6 3 2 3 4 6 9 10 9 9 8 9 9 9 9 9 8 8 8 7 6 5 5 5 5 5 5 4 4
2 4 2 5 6 4 4 3 4 3 3 3 3 5 5 4 3 2 2 3 3 5 7 8 8 7 7 8 8 9 9 8 8 8 7 6 6 5 5 5 5 5 5 4
3 4 1 5 5 3 0 1 3 4 3 3 4 5 3 1 0 1 2 3 3 4 4 4 6 7 8 8 8 8 9 9 8 7 7 6 6 6 6 5 5 5 5 4
4 4 6 7 6 4 4 4 2 3 3 4 6 6 6 4 2 3 3 3 4 5 6 5 5 6 7 8 8 8 7 8 8 8 8 7 7 7 6 5 5 5 5 5
4 3 5 6 6 5 5 6 5 5 7 7 7 7 8 6 6 5 3 3 3 4 5 6 6 5 5 6 6 7 7 7 8 8 8 8 8 7 6 6 6 5 5 6
3 3 2 3 4 4 6 7 7 7 5 6 5 6 6 4 2 2 2 3 3 4 5 6 6 6 5 6 6 6 7 7 7 9 9 8 7 7 7 6 6 5 5 4
2 4 2 4 4 3 6 7 7 6 5 6 7 8 3 2 4 5 5 5 5 5 5 7 7 7 7 7 7 8 7 6 7 8 8 8 8 8 8 7 6 6 5 4
6 4 3 2 0 6 7 5 5 5 5 5 5 6 6 7 7 6 6 7 6 6 6 6 7 6 6 6 5 6 6 6 7 7 7 8 8 8 7 7 7 6 5 5
7 6 3 3 3 5 5 4 3 4 6 5 5 5 5 4 1 4 5 6 7 8 6 6 7 6 6 6 6 6 5 5 6 6 7 8 9 9 8 8 7 6 5 5
3 4 4 4 4 6 7 5 3 2 5 5 5 4 3 2 2 6 6 4 5 5 5 5 5 5 6 6 7 7 6 6 7 7 7 7 9 10 10 9 8 5 5 6
1 1 4 5 5 7 7 4 1 3 6 4 5 5 5 5 7 7 5 4 4 4 4 5 5 5 6 6 7 7 7 8 8 6 5 6 8 9 9 8 6 6 6 5
5 5 5 5 5 7 5 2 5 6 4 3 5 6 6 5 4 4 4 4 4 4 4 4 5 4 4 6 8 8 8 7 5 5 5 6 7 7 7 7 6 6 7 6
5 6 6 7 8 5 3 5 5 4 3 4 4 5 5 4 3 3 3 3 4 4 4 4 5 4 3 6 8 9 8 6 6 5 5 5 6 5 6 7 7 6 6 6
4 2 3 3 6 5 5 5 4 3 4 5 4 4 4 4 4 3 3 3 3 3 4 4 4 5 4 5 6 7 7 6 7 6 5 5 5 5 5 5 6 7 7 6
5 2 2 4 6 4 5 4 4 4 3 3 2 3 5 5 5 4 4 4 3 3 3 4 5 5 5 4 4 5 6 7 7 6 5 5 5 5 5 5 5 6 7 8
5 6 6 6 6 4 7 7 5 4 4 3 2 2 3 4 4 3 3 3 3 3 3 3 4 4 4 4 4 5 6 7 8 6 5 4 4 4 4 4 2 2 4 6
Wind_Direction
84 100 205 218 208 196 184 183 226 244 239 197 213 224 216 204 193 193 192 189 192 201 195 173 166 158 149 148 145 143 138 138 126 119 117 108 101 77 51 49 67 72 82 85
49 240 231 223 224 203 198 215 249 270 251 195 221 239 225 210 205 197 192 192 196 192 181 178 170 162 161 161 158 154 153 152 147 146 147 141 135 125 111 49 57 71 78 80
191 232 237 224 214 205 226 205 216 227 280 332 64 298 262 241 222 208 199 195 193 187 182 181 175 174 169 168 168 165 165 159 154 141 121 100 75 60 52 44 26 39 78 79
229 246 250 220 217 190 240 233 206 189 127 269 198 262 270 232 224 214 208 200 197 189 181 178 177 175 177 178 172 165 165 161 155 143 139 140 135 141 178 167 130 30 67 85
247 222 208 224 217 181 215 224 191 197 171 291 273 203 280 227 224 224 213 205 199 189 182 179 181 180 180 176 171 169 162 161 159 153 150 144 142 152 147 122 112 66 47 73
248 257 219 218 203 174 157 32 17 41 80 266 237 196 269 230 220 220 212 205 196 188 185 183 181 176 175 172 168 165 161 165 163 159 155 153 154 152 142 146 146 114 60 52
323 310 292 143 61 21 75 79 26 357 3 261 240 196 250 253 228 210 203 202 196 187 182 178 174 175 174 172 169 165 164 168 170 165 165 168 166 163 164 169 167 155 141 138
209 288 274 195 164 178 169 142 160 200 229 279 295 231 264 291 249 190 189 188 183 180 182 181 180 180 179 175 170 168 169 171 174 173 175 176 171 168 176 176 170 174 181 187
178 255 290 266 174 150 159 187 179 153 229 271 284 295 324 347 359 70 149 164 180 181 180 183 183 181 179 177 177 175 173 171 176 178 175 176 176 174 180 177 171 178 184 176
164 225 282 288 49 3 164 160 101 123 167 251 288 277 259 279 294 329 193 191 187 181 180 180 181 184 183 183 179 173 171 175 178 176 178 180 183 180 176 164 168 178 181 162
149 167 296 339 192 228 243 133 130 146 167 170 248 271 239 216 212 201 205 198 193 183 181 182 182 181 181 179 174 173 173 171 175 178 177 172 175 171 162 168 177 176 168 157
146 133 228 259 269 231 193 193 153 162 234 184 188 259 277 209 196 194 206 192 186 180 182 179 174 168 169 175 177 178 177 177 181 176 166 167 170 162 161 175 184 171 161 157
136 120 72 338 332 348 237 211 158 151 150 185 198 256 307 321 279 215 197 191 170 151 152 157 163 171 177 179 180 181 181 183 179 170 165 164 166 165 170 177 172 165 159 154
136 142 179 206 228 239 260 267 226 158 185 221 223 245 285 278 259 256 213 196 179 167 166 159 165 181 184 184 183 180 182 181 175 169 168 172 177 177 176 172 168 167 163 159
120 176 214 231 238 240 243 250 245 225 211 212 231 233 249 242 233 232 210 187 170 160 169 177 180 185 186 182 184 182 183 181 177 173 177 185 184 176 167 168 172 169 166 169
126 173 211 265 264 268 267 254 246 244 233 222 229 248 250 250 238 236 194 177 188 184 185 187 184 185 188 191 185 182 186 184 176 178 187 186 176 172 171 174 171 166 169 168
160 156 173 249 276 314 267 241 228 231 234 211 226 243 248 255 240 218 202 197 204 197 194 190 188 190 193 193 187 184 185 178 174 181 185 182 179 178 180 177 168 171 175 169
168 162 166 207 241 235 248 246 202 209 239 225 221 235 223 219 226 226 206 199 207 202 200 199 194 191 193 188 186 179 169 167 175 180 184 183 180 180 177 173 177 179 173 173
170 156 152 160 210 261 277 258 215 213 252 241 219 235 243 230 240 274 240 211 206 199 198 201 195 187 182 180 176 166 168 170 175 185 188 188 183 180 177 180 185 181 172 177
138 135 146 164 194 233 244 255 239 154 251 247 201 204 222 150 208 256 253 229 213 193 185 185 181 170 173 181 168 165 177 179 192 197 195 191 184 183 185 187 185 178 175 181
150 145 176 195 218 252 256 270 104 194 242 246 202 197 187 194 218 238 234 213 197 189 187 172 169 179 189 178 166 173 182 200 205 196 190 187 185 187 186 183 179 174 175 171
189 189 197 179 203 246 254 164 186 225 249 242 215 207 200 216 239 243 221 199 186 179 177 168 171 190 195 177 172 181 198 206 189 176 181 187 186 185 181 175 177 175 173 176
201 198 192 194 215 241 233 214 229 216 234 245 226 224 203 212 230 238 215 192 189 182 183 180 178 184 191 185 179 186 203 187 169 170 183 189 182 181 173 174 178 176 178 183
259 204 181 234 252 255 263 264 267 244 239 245 230 214 194 203 212 222 201 185 181 188 191 181 171 181 199 198 191 192 187 175 167 176 187 185 179 176 172 177 180 184 189 192
234 198 206 247 269 300 298 275 262 274 283 288 263 222 200 194 203 201 200 192 195 204 199 181 180 192 204 198 197 190 177 169 173 180 185 184 182 179 179 183 192 198 204 199
217 200 199 230 236 237 263 266 273 275 271 259 255 251 217 198 201 202 204 197 190 194 192 185 183 188 196 188 190 192 182 172 171 178 185 188 185 181 178 178 187 223 208 201
Height
1525 1531 1535 1532 1530 1531 1532 1536 1539 1535 1528 1530 1534 1533 1531 1530 1532 1533 1534 1535 1537 1539 1541 1542 1544 1545 1547 1548 1550 1551 1552 1552 1553 1554 1554 1554 1555 1555 1556 1556 1556 1556 1555 1555
1530 1532 1525 1524 1525 1527 1530 1535 1536 1532 1527 1529 1533 1532 1528 1528 1528 1528 1530 1532 1534 1536 1539 1541 1542 1544 1545 1547 1548 1550 1551 1552 1552 1553 1554 1554 1555 1555 1555 1556 1556 1556 1555 1555
1530 1526 1521 1522 1525 1528 1530 1533 1533 1533 1529 1528 1532 1536 1530 1526 1526 1527 1528 1529 1531 1533 1535 1538 1540 1542 1544 1545 1547 1548 1550 1551 1552 1553 1554 1554 1555 1555 1555 1556 1556 1556 1556 1556
1525 1521 1521 1523 1525 1525 1532 1525 1525 1528 1536 1542 1537 1550 1533 1526 1525 1524 1524 1526 1527 1530 1532 1535 1537 1539 1542 1544 1546 1547 1549 1550 1551 1552 1553 1554 1554 1554 1555 1555 1556 1556 1556 1556
1525 1520 1521 1524 1522 1521 1525 1521 1523 1527 1534 1541 1539 1546 1538 1526 1526 1521 1520 1521 1523 1526 1529 1532 1534 1537 1540 1542 1544 1546 1548 1549 1550 1552 1552 1553 1554 1554 1555 1555 1556 1556 1556 1556
1522 1518 1518 1518 1517 1518 1520 1524 1527 1533 1540 1550 1539 1544 1540 1527 1520 1515 1515 1517 1520 1523 1526 1529 1532 1535 1538 1540 1543 1544 1546 1548 1550 1551 1552 1552 1553 1554 1554 1555 1555 1555 1556 1556
1526 1521 1517 1517 1520 1521 1524 1538 1552 1553 1558 1552 1535 1538 1534 1516 1511 1510 1511 1513 1516 1520 1523 1527 1530 1533 1536 1538 1540 1543 1545 1547 1548 1550 1551 1552 1553 1553 1554 1554 1555 1555 1555 1556
1537 1535 1520 1516 1520 1525 1527 1535 1552 1559 1559 1550 1535 1536 1526 1512 1508 1507 1508 1511 1514 1517 1521 1524 1527 1530 1533 1536 1538 1541 1543 1545 1547 1548 1550 1551 1552 1552 1553 1554 1554 1555 1555 1555
1536 1534 1518 1515 1515 1518 1526 1532 1532 1543 1545 1549 1542 1530 1520 1511 1509 1508 1509 1511 1513 1516 1519 1522 1525 1528 1531 1533 1536 1538 1541 1543 1545 1547 1548 1550 1551 1552 1552 1553 1553 1554 1555 1555
1526 1532 1521 1516 1515 1516 1519 1524 1535 1543 1552 1555 1544 1538 1533 1520 1515 1512 1510 1511 1512 1515 1517 1520 1523 1526 1529 1531 1534 1537 1539 1541 1544 1545 1547 1548 1550 1551 1551 1552 1552 1553 1554 1554
1522 1531 1528 1522 1522 1523 1522 1525 1531 1539 1542 1551 1553 1544 1518 1516 1514 1513 1511 1511 1512 1513 1515 1518 1521 1524 1527 1530 1532 1535 1537 1539 1542 1544 1545 1547 1548 1549 1550 1550 1551 1552 1552 1553
1521 1530 1535 1527 1518 1515 1518 1521 1529 1541 1543 1542 1546 1540 1512 1511 1510 1511 1510 1510 1511 1513 1514 1516 1519 1522 1525 1528 1530 1533 1535 1537 1540 1542 1543 1545 1546 1547 1548 1549 1549 1550 1551 1552
1521 1530 1540 1537 1530 1521 1519 1519 1522 1529 1537 1542 1544 1535 1512 1510 1509 1510 1510 1509 1510 1512 1514 1516 1518 1520 1523 1525 1528 1530 1533 1535 1538 1540 1541 1543 1544 1545 1546 1547 1548 1549 1550 1551
1516 1527 1535 1538 1532 1524 1523 1520 1519 1526 1537 1538 1533 1526 1516 1512 1510 1509 1509 1509 1509 1511 1512 1514 1516 1518 1520 1523 1526 1528 1530 1533 1536 1537 1539 1541 1542 1543 1544 1546 1547 1548 1548 1549
1515 1524 1523 1522 1518 1518 1518 1518 1517 1520 1523 1529 1524 1521 1514 1511 1509 1508 1507 1508 1509 1509 1511 1512 1514 1516 1518 1521 1523 1526 1528 1530 1533 1535 1537 1538 1540 1541 1543 1544 1545 1546 1547 1548
1515 1521 1521 1521 1516 1516 1517 1514 1514 1515 1514 1516 1516 1515 1508 1507 1507 1507 1506 1507 1507 1507 1509 1510 1512 1514 1516 1518 1520 1523 1525 1528 1530 1532 1534 1536 1537 1539 1540 1542 1543 1544 1545 1546
1516 1520 1525 1527 1519 1517 1522 1512 1511 1511 1509 1511 1514 1510 1505 1506 1505 1504 1504 1505 1505 1505 1506 1508 1509 1511 1513 1515 1518 1519 1522 1525 1527 1529 1531 1533 1534 1536 1538 1539 1541 1542 1543 1544
1514 1518 1524 1526 1524 1529 1515 1503 1503 1505 1505 1504 1503 1503 1502 1502 1502 1502 1502 1502 1502 1503 1504 1505 1507 1508 1510 1513 1515 1517 1519 1521 1523 1525 1527 1529 1531 1533 1535 1536 1538 1539 1540 1542
1506 1514 1523 1527 1527 1520 1509 1501 1501 1503 1504 1500 1499 1499 1499 1499 1500 1500 1499 1499 1499 1500 1501 1503 1504 1505 1508 1510 1512 1514 1516 1518 1520 1522 1524 1526 1528 1529 1531 1533 1534 1536 1538 1539
1504 1508 1519 1524 1525 1523 1508 1497 1495 1499 1504 1496 1495 1496 1496 1497 1502 1498 1495 1496 1496 1497 1499 1500 1501 1503 1504 1507 1509 1511 1513 1515 1516 1518 1520 1522 1524 1526 1527 1529 1531 1533 1534 1536
1509 1512 1517 1520 1521 1513 1499 1494 1495 1506 1502 1493 1492 1492 1493 1494 1495 1493 1492 1493 1493 1494 1496 1497 1498 1500 1501 1503 1505 1507 1509 1511 1513 1515 1517 1519 1520 1522 1524 1526 1528 1529 1531 1532
1508 1512 1514 1517 1519 1513 1494 1494 1497 1495 1490 1490 1489 1489 1490 1490 1490 1490 1489 1489 1490 1491 1493 1494 1495 1497 1499 1500 1502 1504 1506 1508 1510 1512 1513 1515 1517 1519 1520 1522 1524 1526 1527 1529
1502 1501 1503 1505 1503 1493 1490 1490 1489 1489 1488 1487 1486 1486 1487 1487 1487 1487 1486 1486 1487 1488 1490 1491 1493 1494 1496 1497 1499 1500 1502 1505 1507 1508 1510 1511 1513 1515 1516 1518 1520 1522 1523 1525
1497 1494 1496 1497 1492 1489 1488 1487 1487 1486 1485 1484 1483 1483 1484 1484 1484 1484 1484 1484 1485 1486 1487 1489 1490 1491 1492 1494 1496 1497 1499 1501 1503 1504 1506 1508 1509 1511 1513 1514 1516 1518 1519 1520
1494 1493 1494 1493 1489 1486 1484 1484 1484 1483 1482 1480 1480 1480 1481 1481 1481 1481 1481 1481 1482 1483 1485 1486 1487 1488 1489 1491 1493 1494 1496 1498 1499 1501 1502 1504 1505 1507 1509 1510 1512 1513 1514 1516
1489 1489 1490 1489 1485 1485 1483 1481 1480 1480 1479 1478 1477 1477 1478 1478 1478 1478 1479 1479 1480 1481 1482 1483 1484 1485 1486 1488 1489 1491 1493 1494 1495 1497 1498 1500 1501 1503 1505 1506 1507 1509 1511 1512